Regional Weather Roundup
Issued by NWS

Home | Current Version | Previous Version | Graphics & Text | Print | Product List | Glossary On
Versions: 1 2 3 4 5 6 7 8 9 10 11 12 13 14 15 16 17 18 19 20 21 22 23 24 25 26 27 28 29 30 31 32 33 34 35 36 37 38 39 40 41 42 43 44 45 46 47 48 49 50
000
ASUS43 KDMX 271008
RWRIA

WEATHER ROUNDUP FOR IOWA
NATIONAL WEATHER SERVICE DES MOINES IA
500 AM CDT FRI MAY 27 2016

NOTE: "FAIR" INDICATES FEW OR NO CLOUDS BELOW 12,000 FEET WITH NO
SIGNIFICANT WEATHER AND/OR OBSTRUCTIONS TO VISIBILITY.

* - THESE STATIONS ARE NOT NWS STATIONS...THUS NOT UNDER NWS
QUALITY CONTROL.  THEY ALSO DO NOT REPORT WEATHER SUCH
AS PRECIPITATION OR FOG.

IAZ001>003-012>014-020>022-031>034-043>046-271100-
   NORTHWEST IOWA

CITY           SKY/WX    TMP DP  RH WIND       PRES   REMARKS
CARROLL *      CLOUDY    63  59  88 SE3       29.79F
CHEROKEE *     CLOUDY    59  57  94 CALM      29.76F
LE MARS *      CLOUDY    63  55  77 E7        29.76F
ORANGE CITY *  CLOUDY    61  57  88 CALM      29.77F
SHELDON *      CLEAR     59  57  94 E5        29.76F
SIOUX CITY     CLOUDY    63  56  78 E7        29.75F
SPENCER        CLOUDY    58  55  90 SE3       29.78F
STORM LAKE *   CLOUDY    61  55  82 E6        29.78F
$$

IAZ055>058-069>071-079>083-090>094-271100-
   SOUTHWEST IOWA

CITY           SKY/WX    TMP DP  RH WIND       PRES   REMARKS
ATLANTIC *     LGT RAIN  61  59  94 CALM      29.76F
AUDUBON *      LGT RAIN  61  57  88 CALM      29.79F
CLARINDA *       N/A     61  61 100 MISG      29.76F
COUNCIL BLFS * CLOUDY    61  59  94 E12       29.69F
CRESTON *      CLOUDY    61  59  94 SW5       29.80S
HARLAN  *      CLOUDY    61  59  94 E5        29.79F
LAMONI         CLOUDY    61  60  97 CALM      29.78R
RED OAK *      CLOUDY    61  61 100 SE5       29.73F
SHENANDOAH *   CLOUDY    63  63 100 SE12      29.71F
$$

IAZ047>049-059>061-072>074-084-271100-
   CENTRAL IOWA

CITY           SKY/WX    TMP DP  RH WIND       PRES   REMARKS
AMES           CLOUDY    62  60  93 CALM      29.81F
ANKENY *       DRIZZLE   63  63 100 N3        29.81S
BOONE *        CLOUDY    63  61  94 E3        29.80F
CHARITON *     LGT RAIN  63  61  94 CALM      29.80R
DES MOINES     LGT RAIN  64  59  83 N3        29.81R
GRINNELL*      CLOUDY    61  59  94 NE5       29.83S
KNOXVILLE *    CLOUDY    61  59  94 CALM      29.79S
MARSHALLTOWN   CLOUDY    62  60  93 NE6       29.82F
NEWTON *       CLOUDY    63  63 100 NE5       29.81R
PELLA *        PTCLDY    61  61 100 E3        29.81S
PERRY *        LGT RAIN  63  61  94 NE3       29.81F
$$

IAZ004>006-015-016-023>025-035-036-271100-
   NORTH CENTRAL IOWA

CITY           SKY/WX    TMP DP  RH WIND       PRES   REMARKS
ALGONA *       CLEAR     63  57  82 SE9       29.80F
CLARION *      CLOUDY    64  59  82 E10       29.81F
ESTHERVILLE    CLOUDY    59  57  93 N3        29.78F
FORT DODGE *   CLOUDY    63  55  77 E8        29.81F
MASON CITY     CLOUDY    61  59  93 SE5       29.85F
FOREST CITY *  CLOUDY    61  55  82 E7        29.82F
WEBSTER CITY * CLOUDY    63  61  94 E5        29.79F
IOWA FALLS *   CLOUDY    64  59  82 CALM      29.84F
$$

IAZ007>011-017>019-026>030-037>042-050>054-066-271100-
   NORTHEAST IOWA

CITY           SKY/WX    TMP DP  RH WIND       PRES   REMARKS
CEDAR RAPIDS   MOCLDY    62  62 100 NE7       29.80F
CHARLES CITY * CLOUDY    63  63 100 E6        29.85F
CLINTON *      CLOUDY    67  59  75 SE7       29.82F
DECORAH *      LGT RAIN  63  61  94 S3        29.86S
DUBUQUE        CLOUDY    62  59  90 CALM      29.86F
MONTICELLO *   CLOUDY    63  61  94 NE6       29.83F
OELWEIN *      LGT RAIN  63  63 100 CALM      29.86F
WATERLOO       LGT RAIN  62  60  93 E5        29.82F
$$

IAZ064-065-067-068-078-271100-
   EAST CENTRAL IOWA

CITY           SKY/WX    TMP DP  RH WIND       PRES   REMARKS
DAVENPORT      CLOUDY    63  60  90 N6        29.81F
IOWA CITY      CLOUDY    64  61  90 E7        29.80F
MT. PLEASANT * PTCLDY    64  64 100 SE7       29.82R
MUSCATINE *    CLOUDY    64  63  94 NE5       29.79F
QUAD CITIES    CLOUDY    64  61  90 CALM      29.80F
$$

IAZ062-063-075>077-085>089-095>099-271100-
   SOUTHEAST IOWA

CITY           SKY/WX    TMP DP  RH WIND       PRES   REMARKS
BURLINGTON     CLOUDY    63  62  97 SE7       29.83R
FAIRFIELD *      N/A    N/A N/A N/A MISG        N/A
FORT MADISON * CLOUDY    63  63 100 SE9       29.84R
KEOKUK *       CLOUDY    64  63  94 SE6       29.82R
OSKALOOSA *      N/A     61  59  94 CALM      29.80R
OTTUMWA        PTCLDY    60  59  96 SE7       29.79F
WASHINGTON *   MOCLDY    63 N/A N/A E8        29.80F
$$

ABBREVIATIONS USED IN REMARKS
   TC - TEMPERATURES IN CELSIUS
  WCI - WIND CHILL INDEX
   HX - HEAT INDEX
  VSB - VISIBILITY
$$





USA.gov is the U.S. government's official web portal to all federal, state and local government web resources and services.